Weather History for Fond du Lac, WI

Change the Weather History Date:

Thursday, April 11, 2013

  Actual Average Record
Temperature  
Mean Temperature 35 °F -  
Max Temperature 37 °F 50 °F 81 °F (1977)
Min Temperature 33 °F 33 °F 21 °F (1959)
Degree Days  
Heating Degree Days 30    
Moisture  
Dew Point 32 °F    
Average Humidity 87    
Maximum Humidity 93    
Minimum Humidity 76    
Precipitation  
Precipitation 0.14 in - - ()
Sea Level Pressure  
Sea Level Pressure 29.75 in    
Wind  
Wind Speed 16 mph (ENE)    
Max Wind Speed 24 mph    
Max Gust Speed 34 mph    
Visibility 5 miles    
Events Rain    
Averages and records for this station are not official NWS values.
T = Trace of Precipitation, MM = Missing Value Source: NWS Daily Summary

Daily Weather History Graph

Daily Weather History Graph

Search for Another Location

Airport:

Trip Planner

Search our weather history database for the weather conditions in past years. The results will help you decide how hot, cold, wet, or windy it might be!

Date:

Astronomy

Apr. 11, 2013 Rise Set
Actual Time 6:17 AM CDT 7:33 PM CDT
Civil Twilight 5:47 AM CDT 8:02 PM CDT
Nautical Twilight 5:12 AM CDT 8:38 PM CDT
Astronomical Twilight 4:34 AM CDT 9:16 PM CDT
Moon 6:46 AM CDT (4/11) 9:11 PM CDT (4/11)
Length of Visible Light 14h 15m
Length of Day
13h 15m
New Moon, 2% of the Moon is Illuminated
Apr 11
New Moon
Apr 18
First Quarter
Apr 25
Full
May 2
Last Quarter
May 9
New

Hourly Weather History & Observations

Time (CDT) Temp. Windchill Dew Point Humidity Pressure Visibility Wind Dir Wind Speed Gust Speed Precip Events Conditions
12:53 AM 36.0 °F 27.5 °F 28.9 °F 76% 29.99 in 10.0 mi ENE 12.7 mph 21.9 mph 0.01 in Rain Light Rain
1:53 AM 35.1 °F 25.2 °F 28.9 °F 78% 29.96 in 10.0 mi ENE 16.1 mph - 0.02 in Rain Light Rain
2:53 AM 35.1 °F 25.2 °F 28.9 °F 78% 29.87 in 10.0 mi East 16.1 mph 33.4 mph 0.00 in   Mostly Cloudy
3:53 AM 36.0 °F 27.1 °F 28.9 °F 76% 29.89 in 10.0 mi East 13.8 mph 21.9 mph N/A   Overcast
4:53 AM 36.0 °F 25.3 °F 28.9 °F 76% 29.88 in 10.0 mi ENE 19.6 mph 27.6 mph 0.00 in Rain Light Rain
5:53 AM 35.1 °F 23.5 °F 30.0 °F 82% 29.85 in 10.0 mi ENE 21.9 mph 31.1 mph 0.01 in Rain Light Rain
6:53 AM 35.1 °F 25.2 °F 30.9 °F 85% 29.85 in 9.0 mi East 16.1 mph 24.2 mph 0.01 in   Overcast
7:00 AM 35.6 °F 25.9 °F 30.2 °F 81% 29.82 in 7.0 mi East 16.1 mph 27.6 mph N/A   Overcast
7:53 AM 35.1 °F 24.8 °F 30.9 °F 85% 29.83 in 6.0 mi ENE 17.3 mph 31.1 mph 0.00 in Rain Light Rain
8:21 AM 35.6 °F 23.7 °F 30.2 °F 81% 29.79 in 6.0 mi ENE 24.2 mph 32.2 mph 0.01 in Rain Light Rain
8:53 AM 35.1 °F 25.2 °F 30.9 °F 85% 29.82 in 9.0 mi East 16.1 mph 27.6 mph 0.02 in Rain Light Rain
9:25 AM 35.6 °F 25.2 °F 30.2 °F 81% 29.78 in 6.0 mi East 18.4 mph 34.5 mph 0.02 in Rain Light Rain
9:53 AM 35.1 °F 23.5 °F 30.9 °F 85% 29.78 in 10.0 mi ENE 21.9 mph 34.5 mph 0.02 in   Overcast
10:53 AM 35.1 °F 23.8 °F 32.0 °F 89% 29.79 in 5.0 mi East 20.7 mph 25.3 mph 0.03 in Rain Light Rain
12:53 PM 36.0 °F 26.0 °F 33.1 °F 89% 29.77 in 3.0 mi East 17.3 mph - 0.00 in Rain Light Rain
12:58 PM 35.6 °F 24.8 °F 33.8 °F 93% 29.74 in 2.5 mi East 19.6 mph 25.3 mph 0.00 in Rain Light Rain
1:20 PM 37.4 °F 28.5 °F 33.8 °F 87% 29.74 in 1.8 mi East 15.0 mph 21.9 mph 0.01 in Rain Light Rain
1:36 PM 37.4 °F 28.5 °F 33.8 °F 87% 29.72 in 2.0 mi East 15.0 mph 26.5 mph 0.01 in   Overcast
1:53 PM 36.0 °F 26.0 °F 33.1 °F 89% 29.74 in 3.0 mi East 17.3 mph 26.5 mph 0.01 in   Overcast
2:09 PM 35.6 °F 26.2 °F 33.8 °F 93% 29.73 in 4.0 mi East 15.0 mph 21.9 mph 0.00 in   Overcast
2:53 PM 36.0 °F 27.1 °F 33.1 °F 89% 29.74 in 4.0 mi East 13.8 mph 21.9 mph 0.00 in   Overcast
3:04 PM 35.6 °F 25.5 °F 33.8 °F 93% 29.71 in 4.0 mi East 17.3 mph 24.2 mph N/A   Overcast
3:53 PM 36.0 °F 26.0 °F 33.1 °F 89% 29.71 in 3.0 mi ENE 17.3 mph - N/A   Overcast
4:53 PM 36.0 °F 26.7 °F 33.1 °F 89% 29.72 in 2.5 mi East 15.0 mph 24.2 mph 0.00 in   Overcast
5:20 PM 35.6 °F 26.6 °F 33.8 °F 93% 29.69 in 3.0 mi ENE 13.8 mph 19.6 mph 0.00 in   Overcast
5:53 PM 36.0 °F 27.5 °F 33.1 °F 89% 29.71 in 4.0 mi ENE 12.7 mph 19.6 mph 0.00 in   Overcast
6:27 PM 35.6 °F 28.0 °F 33.8 °F 93% 29.72 in 2.0 mi ENE 10.4 mph 18.4 mph 0.00 in   Overcast
6:35 PM 35.6 °F 27.1 °F 33.8 °F 93% 29.71 in 1.8 mi ENE 12.7 mph 20.7 mph 0.00 in   Overcast
6:45 PM 35.6 °F 27.1 °F 33.8 °F 93% 29.70 in 2.0 mi ENE 12.7 mph 19.6 mph 0.00 in   Overcast
6:53 PM 35.1 °F 25.2 °F 33.1 °F 92% 29.72 in 2.5 mi ENE 16.1 mph 20.7 mph 0.00 in   Overcast
7:01 PM 35.6 °F 26.2 °F 33.8 °F 93% 29.68 in 3.0 mi ENE 15.0 mph - N/A   Overcast
7:12 PM 35.6 °F 26.6 °F 33.8 °F 93% 29.67 in 5.0 mi ENE 13.8 mph - N/A   Overcast
7:53 PM 35.1 °F 24.1 °F 32.0 °F 89% 29.66 in 7.0 mi ENE 19.6 mph 25.3 mph N/A   Overcast
8:53 PM 35.1 °F 27.9 °F 30.9 °F 85% 29.67 in 10.0 mi East 9.2 mph - N/A   Overcast
9:53 PM 35.1 °F 26.9 °F 32.0 °F 89% 29.66 in 5.0 mi East 11.5 mph - N/A   Overcast
10:36 PM 33.8 °F 24.8 °F 32.0 °F 93% 29.63 in 2.5 mi East 12.7 mph - 0.00 in   Overcast
10:53 PM 34.0 °F 26.0 °F 30.9 °F 89% 29.65 in 3.0 mi ENE 10.4 mph - 0.01 in   Overcast
11:10 PM 33.8 °F 25.8 °F 30.2 °F 87% 29.63 in 4.0 mi East 10.4 mph - 0.00 in   Overcast
11:31 PM 33.8 °F 25.3 °F 30.2 °F 87% 29.63 in 2.5 mi ENE 11.5 mph - 0.00 in   Overcast
11:53 PM 34.0 °F 26.0 °F 32.0 °F 92% 29.65 in 3.0 mi ENE 10.4 mph - 0.00 in   Overcast